Tracking 28514 objects as of 25-Feb-2024
HD Live streaming from Space Station
objects crossing your sky now

OKEAN O

Track OKEAN O now!
10-day predictions
OKEAN O is classified as:


NORAD ID: 25860
Int'l Code: 1999-039A
Perigee: 641.7 km
Apogee: 643.1 km
Inclination: 98.1 °
Period: 97.4 minutes
Semi major axis: 7013 km
RCS: 19.8052 m2 (large)
Launch date: July 17, 1999
Source: Commonwealth of Independent States (former USSR) (CIS)
Launch site: TYURATAM MISSILE AND SPACE COMPLEX (TTMTR)
Your satellite tracking list
Your tracking list is empty




NASA's NSSDC Master Catalog

Two Line Element Set (TLE):
1 25860U 99039A   24055.57252595  .00001146  00000-0  16565-3 0  9995
2 25860  98.0533 108.0670 0001021 113.8377 246.2940 14.78130588324378
Source of the keplerian elements: AFSPC